Bellaire, MI

8:16 AM EST on December 03, 2016 (GMT -0500)
Antrim County

Weather History for KACB - March, 2013

Change the Weather History Date:

Wednesday, March 20, 2013

  Actual Average (KTVC) Record (KTVC)
Temperature  
Mean Temperature 24 °F 32 °F  
Max Temperature 27 °F 41 °F 86 °F (2012)
Min Temperature 21 °F 23 °F -10 °F (1965)
Degree Days  
Heating Degree Days 41 33  
Month to date heating degree days 727  
Since 1 July heating degree days 6067  
Cooling Degree Days 0 0  
Month to date cooling degree days 0  
Year to date cooling degree days 0  
Moisture  
Dew Point 17 °F    
Average Humidity 75    
Maximum Humidity 92    
Minimum Humidity 57    
Precipitation  
Precipitation 0.00 in 0.06 in 0.51 in (1970)
Month to date precipitation 1.14  
Year to date precipitation 5.46  
Sea Level Pressure  
Sea Level Pressure 29.84 in    
Wind  
Wind Speed 7 mph (West)    
Max Wind Speed 13 mph    
Max Gust Speed 21 mph    
Visibility 5 miles    
Events Snow    
T = Trace of Precipitation, MM = Missing Value Source: NWS Daily Summary

Daily Weather History Graph

Daily Weather History Graph

Search for Another Location

Airport or City:

Trip Planner

Search our weather history database for the weather conditions in past years. The results will help you decide how hot, cold, wet, or windy it might be!

Date:

Astronomy

Mar. 20, 2013 Rise Set
Actual Time 7:43 AM EDT 7:53 PM EDT
Civil Twilight 7:14 AM EDT 8:22 PM EDT
Nautical Twilight 6:39 AM EDT 8:57 PM EDT
Astronomical Twilight 6:04 AM EDT 9:32 PM EDT
Moon 1:14 PM EDT (3/20) 3:36 AM EDT (3/20)
Length of Visible Light 13h 08m
Length of Day
12h 10m
First Quarter, 59% of the Moon is Illuminated
Mar 20
First Quarter
Mar 27
Full
Apr 3
Last Quarter
Apr 10
New
Apr 18
First Quarter

Hourly Weather History & Observations

Time (EDT) Temp. Windchill Dew Point Humidity Pressure Visibility Wind Dir Wind Speed Gust Speed Precip Events Conditions
12:14 AM 27.0 °F 19.5 °F 15.8 °F 63% 29.82 in 10.0 mi West 6.9 mph 20.7 mph N/A   Overcast
12:35 AM 27.3 °F 19.1 °F 14.0 °F 57% 29.82 in 10.0 mi WNW 8.1 mph - N/A   Overcast
12:54 AM 27.0 °F 18.0 °F 13.8 °F 58% 29.81 in 10.0 mi WNW 9.2 mph 17.3 mph N/A   Overcast
1:14 AM 27.0 °F 19.5 °F 14.5 °F 60% 29.82 in 10.0 mi WNW 6.9 mph - N/A   Overcast
1:35 AM 26.6 °F 20.0 °F 13.1 °F 57% 29.82 in 10.0 mi West 5.8 mph 16.1 mph N/A   Overcast
1:54 AM 26.2 °F 16.4 °F 14.2 °F 60% 29.82 in 10.0 mi WNW 10.4 mph - N/A   Overcast
2:14 AM 26.4 °F 18.0 °F 13.5 °F 58% 29.82 in 10.0 mi WNW 8.1 mph - N/A   Overcast
2:35 AM 25.5 °F 15.5 °F 16.0 °F 67% 29.82 in 10.0 mi West 10.4 mph - N/A   Overcast
2:54 AM 25.7 °F 15.7 °F 15.1 °F 64% 29.83 in 10.0 mi West 10.4 mph - N/A   Overcast
3:15 AM 25.5 °F 17.8 °F 15.1 °F 65% 29.82 in 10.0 mi WNW 6.9 mph 17.3 mph N/A   Overcast
3:35 AM 24.8 °F 20.5 °F 15.8 °F 69% 29.82 in 10.0 mi WNW 3.5 mph - N/A   Overcast
3:54 AM 24.4 °F 15.6 °F 16.2 °F 71% 29.82 in 4.0 mi West 8.1 mph 20.7 mph N/A Snow Light Snow
4:15 AM 23.7 °F 17.8 °F 17.4 °F 77% 29.81 in 10.0 mi West 4.6 mph - N/A   Overcast
4:34 AM 24.6 °F 15.1 °F 16.0 °F 70% 29.81 in 10.0 mi WNW 9.2 mph - N/A   Overcast
4:54 AM 24.1 °F 18.2 °F 16.9 °F 74% 29.81 in 10.0 mi West 4.6 mph - N/A   Overcast
5:15 AM 24.4 °F 15.6 °F 14.5 °F 66% 29.81 in 10.0 mi West 8.1 mph 17.3 mph N/A   Overcast
5:34 AM 24.4 °F 17.5 °F 14.4 °F 66% 29.81 in 10.0 mi West 5.8 mph - N/A   Overcast
5:54 AM 23.9 °F 14.2 °F 15.4 °F 70% 29.81 in 10.0 mi WNW 9.2 mph - N/A Snow Light Snow
6:15 AM 23.5 °F 13.0 °F 15.1 °F 70% 29.82 in 7.0 mi West 10.4 mph 16.1 mph N/A Snow Light Snow
6:34 AM 23.0 °F 13.9 °F 15.8 °F 74% 29.82 in 5.0 mi West 8.1 mph 17.3 mph N/A Snow Light Snow
6:55 AM 23.2 °F 15.0 °F 15.8 °F 73% 29.82 in 7.0 mi West 6.9 mph 16.1 mph N/A Snow Light Snow
7:15 AM 23.0 °F 18.4 °F 15.8 °F 74% 29.82 in 7.0 mi West 3.5 mph - N/A Snow Light Snow
7:34 AM 23.0 °F 18.4 °F 14.9 °F 71% 29.83 in 7.0 mi West 3.5 mph - N/A Snow Light Snow
7:55 AM 22.1 °F 13.7 °F 16.9 °F 80% 29.83 in 1.5 mi WNW 6.9 mph - N/A Snow Light Snow
8:15 AM 21.7 °F 12.3 °F 17.4 °F 83% 29.83 in 1.0 mi WNW 8.1 mph - N/A Snow Light Snow
8:34 AM 21.6 °F 14.0 °F 17.6 °F 85% 29.83 in 0.8 mi West 5.8 mph - N/A Snow Light Snow
8:55 AM 21.6 °F 15.3 °F 18.1 °F 87% 29.83 in 1.0 mi WNW 4.6 mph - N/A Snow Light Snow
9:15 AM 21.7 °F 14.3 °F 18.0 °F 85% 29.83 in 2.0 mi West 5.8 mph - N/A Snow Light Snow
9:34 AM 21.9 °F 14.5 °F 17.4 °F 83% 29.83 in 1.2 mi West 5.8 mph - N/A Snow Light Snow
9:55 AM 22.1 °F 17.4 °F 18.5 °F 86% 29.83 in 1.8 mi West 3.5 mph - N/A Snow Light Snow
10:15 AM 21.9 °F 15.7 °F 17.8 °F 84% 29.83 in 0.5 mi West 4.6 mph - N/A Snow Light Snow
10:34 AM 23.0 °F 11.7 °F 15.6 °F 73% 29.83 in 4.0 mi WNW 11.5 mph 19.6 mph N/A Snow Light Snow
10:55 AM 22.1 °F 13.7 °F 17.1 °F 81% 29.83 in 1.0 mi West 6.9 mph - N/A Snow Light Snow
11:14 AM 23.0 °F 18.4 °F 13.1 °F 66% 29.83 in 10.0 mi West 3.5 mph 17.3 mph N/A   Overcast
11:55 AM 23.4 °F 15.2 °F 13.1 °F 65% 29.84 in 7.0 mi West 6.9 mph - N/A Snow Light Snow
12:14 PM 23.4 °F 13.5 °F 13.8 °F 67% 29.85 in 5.0 mi West 9.2 mph 17.3 mph N/A Snow Light Snow
12:35 PM 23.5 °F 13.0 °F 13.8 °F 66% 29.85 in 5.0 mi West 10.4 mph 16.1 mph N/A Snow Light Snow
12:54 PM 23.5 °F 13.7 °F 14.9 °F 70% 29.85 in 3.0 mi West 9.2 mph - N/A Snow Light Snow
1:13 PM 25.0 °F 13.6 °F 13.5 °F 62% 29.85 in 10.0 mi West 12.7 mph 18.4 mph N/A   Overcast
1:35 PM 24.1 °F 16.0 °F 13.6 °F 64% 29.85 in 4.0 mi West 6.9 mph 17.3 mph N/A Snow Light Snow
1:55 PM 24.3 °F 16.3 °F 13.1 °F 63% 29.85 in 7.0 mi West 6.9 mph 18.4 mph N/A Snow Light Snow
2:15 PM 24.3 °F 15.4 °F 15.4 °F 69% 29.85 in 2.0 mi West 8.1 mph 19.6 mph N/A Snow Light Snow
2:34 PM 23.9 °F 13.5 °F 16.0 °F 72% 29.85 in 1.8 mi West 10.4 mph 17.3 mph N/A Snow Light Snow
2:55 PM 23.5 °F 15.4 °F 16.2 °F 73% 29.85 in 3.0 mi SW 6.9 mph 19.6 mph N/A Snow Light Snow
3:15 PM 23.4 °F 16.2 °F 17.4 °F 78% 29.85 in 1.0 mi WSW 5.8 mph - N/A Snow Light Snow
3:34 PM 24.3 °F 17.3 °F 15.3 °F 69% 29.85 in 5.0 mi West 5.8 mph 17.3 mph N/A Snow Light Snow
3:55 PM 24.1 °F 17.0 °F 15.6 °F 70% 29.85 in 2.0 mi West 5.8 mph - N/A Snow Light Snow
4:15 PM 24.1 °F 14.4 °F 16.7 °F 73% 29.85 in 1.8 mi WSW 9.2 mph 19.6 mph N/A Snow Light Snow
4:34 PM 23.9 °F 12.9 °F 15.8 °F 71% 29.86 in 2.5 mi WSW 11.5 mph 17.3 mph N/A Snow Light Snow
4:55 PM 24.8 °F 15.3 °F 14.7 °F 66% 29.85 in 7.0 mi WSW 9.2 mph 17.3 mph N/A   Overcast
5:15 PM 23.7 °F 14.0 °F 16.5 °F 74% 29.86 in 1.2 mi West 9.2 mph 20.7 mph N/A   Overcast
5:35 PM 24.1 °F 14.4 °F 16.7 °F 73% 29.86 in 2.5 mi SW 9.2 mph 16.1 mph N/A   Overcast
5:55 PM 23.9 °F 12.9 °F 16.9 °F 75% 29.86 in 3.0 mi WSW 11.5 mph 19.6 mph N/A   Overcast
6:15 PM 23.7 °F 14.7 °F 18.5 °F 80% 29.86 in 1.2 mi SW 8.1 mph - N/A   Overcast
6:35 PM 23.9 °F 15.8 °F 18.1 °F 79% 29.86 in 3.0 mi SW 6.9 mph - N/A   Overcast
6:55 PM 23.0 °F 15.8 °F 19.2 °F 85% 29.86 in 0.8 mi SW 5.8 mph - N/A   Overcast
7:15 PM 23.0 °F 15.8 °F 19.4 °F 86% 29.87 in 1.0 mi WNW 5.8 mph - N/A   Overcast
7:35 PM 23.0 °F 15.8 °F 19.9 °F 88% 29.88 in 0.5 mi West 5.8 mph - N/A   Overcast
7:55 PM 23.0 °F 17.0 °F 20.5 °F 90% 29.88 in 0.5 mi WNW 4.6 mph - N/A   Overcast
8:14 PM 23.4 °F 16.2 °F 20.3 °F 88% 29.88 in 1.2 mi West 5.8 mph - N/A   Overcast
8:35 PM 23.0 °F 17.0 °F 19.4 °F 86% 29.88 in 2.0 mi West 4.6 mph - N/A   Overcast
8:55 PM 23.0 °F 17.0 °F 20.1 °F 89% 29.88 in 1.2 mi West 4.6 mph - N/A   Overcast
9:15 PM 23.0 °F 17.0 °F 20.3 °F 89% 29.87 in 1.2 mi West 4.6 mph - N/A   Overcast
9:35 PM 23.0 °F 15.8 °F 20.3 °F 89% 29.87 in 0.8 mi West 5.8 mph - N/A   Overcast
9:55 PM 23.4 °F 15.2 °F 21.0 °F 91% 29.87 in 0.8 mi West 6.9 mph - N/A   Overcast
10:15 PM 23.5 °F 17.6 °F 21.6 °F 92% 29.86 in 0.5 mi West 4.6 mph - N/A   Overcast
10:35 PM 23.5 °F 16.4 °F 21.2 °F 91% 29.85 in 0.5 mi WNW 5.8 mph - N/A   Overcast
10:55 PM 23.9 °F 14.2 °F 21.7 °F 91% 29.85 in 0.8 mi WNW 9.2 mph - N/A   Overcast
11:15 PM 23.9 °F 16.8 °F 21.2 °F 89% 29.85 in 1.2 mi WNW 5.8 mph 17.3 mph N/A   Overcast
11:35 PM 23.9 °F 15.0 °F 21.2 °F 89% 29.85 in 1.0 mi West 8.1 mph 18.4 mph N/A   Overcast
11:55 PM 23.7 °F 14.7 °F 21.2 °F 90% 29.84 in 1.0 mi WNW 8.1 mph 16.1 mph N/A   Overcast